RH
2 2 2 2 2 2 1 1 1 1 1 1 1 2 2 2 2 2 3 4 6 6 6 6 5 6 9 10 10 12 18 26 35 44 42 53 58 69 73 91 75 82 100 100 100 90 85 100 100 100 100 92 89 98
2 2 2 2 2 1 1 1 1 1 1 1 2 2 2 2 2 3 4 4 5 5 4 6 6 7 11 11 11 12 17 26 34 38 42 46 52 64 78 84 82 98 100 100 100 99 100 100 100 100 100 100 77 100
2 2 2 2 2 1 1 1 1 1 1 2 2 2 2 2 3 4 5 4 5 4 6 6 7 8 12 11 11 10 12 22 28 37 45 47 52 65 66 96 100 100 100 90 91 100 100 100 100 100 100 90 87 100
2 2 2 2 2 2 2 1 1 2 2 2 2 2 3 3 4 4 4 5 5 6 7 7 10 9 11 11 10 12 13 18 25 31 34 43 48 49 62 97 96 96 96 100 100 100 100 100 100 100 96 88 100 100
3 3 3 2 2 2 2 2 2 2 2 2 2 3 3 3 4 4 4 5 5 5 6 8 7 9 10 10 10 11 12 16 27 31 37 45 56 51 65 99 100 100 97 99 100 100 100 100 100 100 90 85 100 100
4 4 3 3 3 3 3 3 3 3 3 3 3 4 4 4 4 4 4 5 6 7 8 8 7 9 10 9 10 9 11 17 26 29 38 48 64 56 73 100 100 100 100 100 100 100 100 100 100 90 87 84 95 99
4 4 4 4 4 4 4 4 4 4 3 3 4 4 4 5 6 7 9 9 9 6 6 6 7 9 8 9 9 10 14 20 27 30 37 50 52 70 100 100 100 100 100 100 100 100 100 100 100 100 95 82 99 100
5 5 5 5 5 5 5 5 5 5 5 5 6 6 7 7 7 6 6 7 6 5 5 6 8 8 8 10 11 12 17 20 27 35 42 52 53 94 100 100 95 94 100 100 100 100 100 100 100 100 100 97 100 100
5 5 5 4 5 5 5 6 6 6 6 6 7 8 8 8 7 7 6 6 6 5 6 7 8 9 10 11 12 14 18 18 24 39 54 49 70 100 100 100 87 83 91 100 100 92 95 99 100 100 100 100 100 96
4 4 5 4 4 5 5 6 6 6 5 5 6 6 6 5 5 5 5 5 5 5 6 7 8 10 12 12 14 16 18 20 26 56 51 47 89 100 100 100 100 96 98 100 100 100 97 90 100 100 100 99 82 77
5 5 5 6 5 5 6 6 6 6 6 6 6 5 5 4 4 4 4 5 5 6 7 8 8 10 10 10 8 9 13 23 29 50 57 69 71 98 100 100 100 100 100 100 100 100 100 91 81 79 78 84 90 89
6 7 7 7 6 6 6 6 5 5 5 4 4 4 4 4 4 5 5 6 6 7 8 9 8 9 11 12 9 9 17 22 36 42 41 43 56 87 99 100 100 97 91 99 100 100 100 100 100 100 100 100 100 100
6 6 6 6 6 6 6 6 6 6 6 6 5 5 4 4 4 5 5 7 7 7 9 9 11 12 11 10 10 13 19 22 28 29 30 41 60 90 100 100 100 100 100 100 100 100 100 100 100 100 100 100 100 100
6 6 5 6 6 6 6 6 6 6 5 4 4 4 5 5 5 6 6 7 6 9 10 9 10 11 11 12 12 14 16 19 26 31 35 36 48 53 69 95 99 100 100 96 98 99 100 100 100 100 100 100 100 100
6 7 7 7 7 6 6 6 6 6 6 5 4 5 6 6 6 8 9 9 11 13 13 13 14 14 13 15 16 18 19 22 30 40 41 35 42 59 63 58 65 81 85 91 94 92 91 94 97 100 100 100 100 100
11 12 11 9 8 9 11 12 11 11 9 8 8 8 8 8 9 12 14 14 15 17 19 19 20 20 21 22 25 26 26 27 29 33 35 38 44 60 62 54 56 67 71 71 84 95 96 97 83 84 90 91 97 95
18 20 21 22 21 21 21 18 16 14 14 12 13 12 13 16 18 18 18 20 22 20 21 22 24 26 27 26 24 24 27 27 28 30 32 34 40 47 52 51 51 57 57 54 72 98 94 90 72 64 62 69 73 72
32 31 34 33 30 25 21 28 28 25 24 22 19 22 24 24 26 28 27 28 31 30 30 29 27 28 29 29 28 28 27 28 28 28 29 31 34 38 42 46 47 47 50 52 64 76 76 62 55 54 57 56 53 50
41 43 40 35 31 34 43 39 39 35 30 26 28 31 33 32 28 25 29 32 31 34 37 39 38 41 39 36 33 36 36 34 34 32 32 33 33 34 36 40 43 41 39 40 41 44 45 45 45 46 44 45 44 46
66 57 53 48 47 45 45 46 50 56 57 57 50 43 45 41 36 37 39 46 62 56 58 65 59 55 59 60 59 57 58 59 45 42 43 44 45 49 46 49 53 59 53 48 49 54 51 50 59 63 68 74 75 73
86 79 78 82 81 69 75 67 66 65 68 65 70 72 72 69 77 83 86 82 60 65 64 55 47 42 47 54 54 51 48 50 53 54 52 52 62 69 64 59 60 57 58 57 59 65 68 63 60 62 60 56 55 54
89 89 87 90 93 82 81 79 84 80 88 94 97 98 93 92 93 92 95 100 96 91 87 81 78 75 79 75 70 62 64 70 72 68 69 67 64 62 61 57 57 59 59 59 60 56 54 52 51 50 50 46 43 42
92 87 89 100 94 90 86 75 81 87 85 77 71 74 82 84 83 82 87 92 89 92 91 94 94 94 94 93 91 91 95 92 85 78 71 64 59 58 53 49 47 48 47 43 45 47 46 45 46 46 44 44 45 47
76 78 76 70 70 72 74 77 78 82 92 99 98 97 88 83 86 84 80 78 77 74 73 71 70 72 78 76 70 62 57 56 54 52 50 44 40 39 39 38 37 38 37 37 37 37 37 35 34 32 29 28 28 23
74 75 75 75 72 73 73 76 80 85 85 82 78 75 73 70 68 66 66 64 62 60 60 59 58 55 54 50 46 42 39 37 35 34 30 27 25 24 23 23 22 22 22 22 21 20 19 17 14 12 10 10 8 6
72 78 81 84 86 86 85 80 77 75 72 70 68 64 59 57 56 58 60 62 59 54 47 44 40 36 29 22 22 21 17 14 12 10 9 8 8 7 6 6 6 6 6 6 6 5 5 5 4 4 4 4 4 4
100 100 100 100 99 95 90 87 82 77 73 69 66 66 65 65 60 52 49 41 32 25 18 13 11 10 8 7 6 6 6 5 5 5 5 4 4 4 4 4 4 4 4 4 4 4 4 4 4 4 4 4 3 3
100 99 96 91 84 80 81 80 79 74 67 64 60 59 54 46 33 24 20 17 12 9 7 6 5 5 5 4 4 4 4 4 4 4 4 4 4 4 4 4 4 3 3 3 3 4 3 3 3 3 3 3 3 3
90 88 85 83 81 78 77 74 71 68 64 54 42 31 23 18 16 14 11 7 6 5 4 4 4 3 3 3 3 3 3 3 3 3 4 3 3 3 3 3 3 3 3 2 2 2 3 3 3 2 2 2 2 2
74 75 75 77 77 74 71 67 56 46 31 21 18 16 14 10 8 7 6 5 4 4 4 4 4 3 3 3 3 2 2 2 2 2 2 2 2 2 2 2 2 3 2 2 2 2 2 2 2 2 2 2 1 1
77 74 70 68 62 53 42 34 25 19 16 14 11 9 7 6 6 5 5 4 4 4 3 3 3 2 2 2 2 2 2 2 3 3 2 2 2 2 2 2 2 2 2 2 2 2 2 2 1 1 1 1 1 1
59 56 50 41 33 25 20 16 14 12 10 9 8 7 6 6 5 5 4 4 3 3 3 3 3 3 3 2 2 2 2 2 2 2 2 2 2 2 2 2 2 2 2 2 2 1 1 1 1 1 1 1 1 1
37 31 25 22 19 15 12 11 10 8 8 7 6 6 5 5 4 3 3 3 3 3 3 3 2 2 2 2 2 2 2 2 2 2 2 2 2 2 2 2 2 1 1 1 1 1 1 1 1 1 1 2 2 1
Wind_Speed
36 33 28 25 24 24 25 26 27 28 32 35 40 43 44 46 48 47 49 53 56 61 66 62 58 59 69 77 86 88 98 100 97 98 91 85 84 82 85 79 78 78 72 67 65 62 53 59 62 53 52 50 43 46
27 23 20 17 16 16 17 20 22 25 29 32 36 39 41 44 46 48 50 56 59 63 61 53 56 62 68 78 87 96 93 92 93 94 90 88 84 82 80 79 76 76 72 67 64 57 58 63 57 55 54 51 48 48
20 17 12 8 7 9 12 16 21 24 27 31 34 37 39 41 45 49 52 55 56 56 52 55 57 61 69 78 87 88 93 94 98 94 95 91 85 82 78 70 70 73 67 61 60 54 57 59 58 56 57 54 51 52
15 10 6 3 2 7 11 15 20 24 28 33 36 39 43 47 50 51 51 52 54 54 54 55 59 64 70 78 83 87 97 98 97 97 92 86 84 81 76 71 69 67 65 57 54 56 58 56 59 64 60 54 57 57
10 6 5 3 5 9 14 19 23 27 32 35 38 41 43 46 47 49 51 53 54 54 53 54 56 61 67 75 82 87 90 93 92 90 85 82 80 78 71 65 58 60 59 59 58 58 60 58 63 58 56 56 60 61
5 5 5 8 12 15 19 22 25 28 31 34 37 39 41 41 42 43 45 46 45 49 53 53 55 59 67 71 75 78 85 90 91 90 84 84 80 75 70 60 58 56 58 59 57 61 60 59 59 60 59 56 59 60
9 10 11 14 17 20 23 24 26 29 31 33 36 37 39 39 39 40 43 46 49 50 49 50 52 57 63 69 76 77 84 88 90 87 84 80 78 68 61 58 59 59 58 58 60 58 58 58 60 64 62 57 59 59
14 15 17 19 21 24 26 27 28 28 30 33 35 37 38 39 39 38 38 40 42 44 44 45 49 52 58 66 70 77 82 87 88 85 81 78 72 64 58 55 61 62 58 61 64 63 58 58 60 64 69 63 62 62
19 19 21 23 24 25 26 27 29 29 30 30 30 30 29 29 31 32 34 36 38 41 43 44 48 50 57 63 70 75 81 84 87 84 80 77 70 63 60 56 62 61 57 63 67 63 60 60 63 66 69 71 69 68
21 23 24 25 25 25 26 26 27 27 27 27 26 26 27 27 28 29 30 32 33 34 37 41 46 50 60 67 68 73 79 83 84 80 79 74 68 69 60 60 57 57 58 63 65 66 64 64 65 65 67 69 70 71
26 28 28 28 29 28 28 28 27 27 27 26 25 25 26 27 28 28 29 30 31 34 36 40 47 54 61 63 71 73 77 84 85 81 78 73 73 67 65 64 62 60 62 67 68 69 69 66 65 67 66 67 69 70
30 30 30 29 29 29 29 29 29 28 27 26 25 24 24 25 26 28 29 29 29 32 36 40 44 52 58 65 68 61 73 77 82 82 80 74 69 68 68 67 66 64 65 68 71 71 72 72 73 73 74 74 76 76
32 32 32 32 30 30 28 27 26 26 25 26 24 23 22 22 22 23 25 28 30 34 36 39 44 49 52 54 54 61 74 77 75 78 75 71 69 69 70 69 70 70 71 73 72 74 74 74 75 75 75 78 81 81
35 34 33 34 34 33 32 30 29 27 25 23 23 23 23 23 24 24 22 23 27 29 34 38 41 45 47 51 54 60 64 66 73 73 73 71 70 69 71 72 75 75 75 78 78 76 77 78 79 80 81 82 84 85
38 37 35 34 32 32 32 32 31 29 28 25 25 27 27 25 25 25 25 24 25 26 29 29 34 36 36 38 43 50 58 63 68 72 75 74 70 70 69 69 72 73 76 79 81 82 82 84 84 85 85 88 90 90
41 41 36 34 33 34 35 34 32 31 29 28 29 27 26 27 28 28 27 27 28 28 28 30 32 32 34 36 40 44 48 55 61 67 73 74 74 73 74 73 74 75 77 77 79 81 82 82 83 85 87 90 93 95
39 38 37 36 35 37 37 34 31 31 30 28 28 28 31 30 27 27 27 27 27 29 31 32 33 31 33 35 38 41 45 49 54 59 65 70 71 72 74 77 79 80 80 80 81 83 84 84 87 89 90 92 95 97
35 35 37 35 32 32 33 33 27 25 27 24 25 27 27 26 26 27 26 27 28 28 29 29 31 33 36 37 37 38 40 43 47 51 56 61 65 69 73 77 80 82 84 86 88 89 91 91 92 92 94 97 99 99
34 29 29 30 32 30 29 28 30 26 23 24 24 21 19 22 23 22 24 24 24 24 24 25 28 29 29 31 31 33 38 41 43 46 49 53 57 61 66 69 73 76 77 80 82 85 88 91 93 95 97 98 98 99
25 24 25 25 24 24 23 28 31 30 28 25 19 15 11 11 10 15 19 21 20 21 21 22 25 27 30 32 34 36 39 42 44 46 50 53 56 58 61 65 68 72 75 78 80 83 86 88 89 91 93 95 97 100
18 17 17 17 14 15 17 15 13 13 10 12 13 15 11 9 6 4 4 8 16 16 19 24 29 29 35 38 39 41 43 45 47 48 49 53 58 62 64 67 71 74 77 80 83 85 87 87 88 90 92 93 94 94
13 12 11 8 6 4 3 6 6 7 5 4 6 7 8 8 8 11 12 15 18 21 23 25 29 34 35 35 36 42 46 48 53 57 57 56 56 59 62 66 69 72 76 79 81 81 82 83 86 89 89 90 92 94
11 10 8 3 4 5 6 4 6 9 10 11 10 12 14 17 18 21 24 26 26 30 33 35 37 41 46 47 50 54 60 63 65 65 66 67 68 70 72 73 75 77 79 81 82 85 87 89 92 93 94 96 98 99
9 10 10 10 10 9 10 10 12 14 16 19 23 27 28 28 29 30 32 34 37 39 42 45 48 51 55 59 62 64 65 67 69 72 75 77 77 77 78 78 79 79 81 82 83 85 87 89 90 92 92 93 94 94
15 15 15 15 15 17 18 19 21 23 25 28 31 33 35 36 37 39 40 43 45 47 50 53 56 59 62 65 67 68 69 71 71 72 72 72 72 73 74 75 76 77 78 79 80 82 83 83 84 85 85 86 85 84
17 18 20 22 24 26 29 32 33 35 36 37 38 39 41 43 45 48 50 53 56 57 58 60 62 63 63 61 63 66 68 68 67 67 67 67 67 66 66 66 66 67 68 69 70 71 71 71 72 73 73 73 72 72
26 28 31 33 34 36 38 39 40 42 44 47 48 50 51 53 55 55 57 59 59 58 57 55 54 56 58 59 60 60 61 60 60 60 61 61 62 62 62 63 64 64 64 65 65 65 65 65 65 65 65 65 65 65
35 36 38 39 40 42 44 46 48 51 53 54 54 55 57 56 56 56 56 56 54 49 47 48 49 49 50 50 50 50 51 51 52 53 53 54 54 55 56 56 57 57 58 58 58 58 58 59 59 59 59 60 60 60
42 44 44 45 46 48 50 53 55 56 57 57 57 56 54 52 52 52 49 45 44 44 43 42 42 42 41 41 41 41 42 42 43 44 45 45 45 46 47 48 49 50 50 51 51 52 52 52 51 52 52 53 53 53
45 47 49 51 53 55 56 57 57 58 57 53 50 50 50 48 46 44 43 42 42 40 38 37 36 35 35 35 35 36 36 37 37 38 38 38 39 40 40 41 42 43 43 44 44 45 45 46 46 47 47 48 48 49
53 54 55 55 55 56 56 55 53 51 49 48 47 46 43 42 41 41 40 37 36 35 34 33 33 33 33 33 33 33 33 33 34 34 34 34 35 36 37 37 38 39 40 41 42 42 43 43 44 44 45 45 45 45
54 55 55 55 54 53 51 49 47 45 45 43 42 42 41 39 38 37 35 35 34 33 33 33 32 32 31 30 30 30 30 31 32 32 33 33 34 35 35 36 37 37 38 39 39 39 40 41 41 41 41 42 42 42
54 52 51 50 48 47 45 44 43 43 41 40 39 38 37 36 35 34 33 33 33 33 33 32 31 30 31 31 31 31 31 31 31 31 32 32 32 33 33 34 35 35 36 37 37 38 37 38 37 38 38 39 39 39
Wind_Direction
297 293 285 280 268 255 244 237 231 223 218 216 216 215 214 212 210 206 204 204 204 205 209 210 208 209 211 209 208 208 209 208 209 215 215 214 218 219 222 225 229 228 228 234 240 242 245 254 257 261 261 267 274 270
300 296 288 273 258 244 230 222 214 210 207 205 204 203 202 200 199 198 197 200 201 202 204 202 203 208 209 207 203 207 206 208 209 213 214 214 215 218 220 225 226 226 230 234 238 240 241 247 253 257 259 263 271 269
309 300 287 274 258 226 212 208 203 198 196 193 191 189 188 187 187 189 193 197 198 199 197 198 202 207 207 205 204 208 208 206 208 209 212 214 215 215 216 219 223 226 228 233 238 240 239 241 247 253 257 262 266 266
317 313 329 339 207 188 183 182 178 178 179 178 178 178 179 181 184 187 190 192 193 194 197 198 204 207 205 204 203 203 207 208 208 211 212 215 216 215 215 218 223 226 227 230 234 238 241 244 248 248 255 262 263 264
341 357 24 71 135 158 159 160 162 165 167 170 173 176 177 180 182 183 188 190 191 193 194 199 204 205 205 204 203 205 207 210 210 211 212 215 217 218 218 220 221 225 229 234 235 232 236 237 243 253 255 258 259 262
28 69 90 121 126 132 137 144 149 155 159 162 166 169 173 175 176 182 187 188 189 193 196 201 203 203 204 204 205 206 209 210 209 211 211 213 216 219 218 217 221 224 227 230 230 233 237 243 247 251 253 255 257 263
83 99 109 120 124 126 130 136 142 149 154 158 160 162 164 167 170 175 181 186 190 194 196 201 203 203 202 200 203 204 209 208 210 212 211 213 215 216 217 219 222 223 225 227 232 235 239 239 246 251 255 258 259 264
103 108 110 113 118 120 124 129 133 140 146 151 154 156 161 168 173 177 181 185 189 193 197 200 200 201 201 200 202 204 207 210 211 211 211 212 213 214 214 218 226 227 224 228 230 232 235 239 244 251 257 257 259 263
104 109 111 113 115 119 124 128 132 136 140 144 148 153 159 165 169 175 183 188 191 193 196 196 196 198 196 197 201 204 209 212 212 211 211 212 211 210 210 221 229 228 226 229 232 236 238 240 244 248 253 258 260 265
105 106 106 108 111 114 117 121 126 130 133 138 145 152 160 167 170 176 182 186 190 190 191 192 192 190 192 196 201 207 212 212 213 210 214 212 209 211 211 217 220 224 226 231 235 238 243 245 243 246 252 256 262 267
101 101 102 104 107 111 116 120 124 128 133 139 145 150 155 160 165 168 172 177 180 182 186 189 192 187 196 200 207 206 209 213 212 211 214 213 214 211 213 219 222 224 228 235 239 242 246 248 249 251 258 263 266 268
107 106 106 108 110 114 118 121 123 125 130 137 142 146 150 155 159 161 166 167 171 175 180 185 189 192 195 202 212 212 210 215 213 215 218 218 218 217 220 224 226 229 233 237 243 245 247 249 251 254 259 263 264 267
107 107 106 105 105 106 107 109 112 117 123 129 134 138 143 144 145 157 163 162 169 172 177 180 185 193 200 207 212 209 213 217 218 221 224 222 221 221 222 225 230 236 237 237 241 247 249 251 252 256 259 262 264 266
104 103 105 106 107 109 110 111 111 112 116 119 123 127 128 139 143 148 150 163 168 164 174 183 186 192 198 204 209 210 219 222 223 225 229 230 226 227 229 230 233 237 240 239 241 245 250 254 257 259 261 263 264 266
102 101 102 105 107 109 111 112 111 112 113 120 123 123 127 131 133 135 140 149 152 164 175 181 188 196 206 208 212 215 221 224 224 226 232 235 234 235 236 238 241 242 243 243 247 250 253 256 261 262 262 265 267 268
101 100 101 104 105 107 105 105 106 106 109 112 114 118 124 128 131 133 138 147 149 157 168 177 183 190 197 203 208 214 220 225 227 228 233 237 239 239 241 244 246 248 250 252 253 255 257 259 262 263 265 267 269 272
95 93 95 100 100 106 106 106 106 104 102 105 110 115 114 116 125 135 140 145 152 163 173 181 184 188 197 203 209 214 219 224 227 229 232 237 239 242 245 247 250 252 254 256 257 257 259 261 263 266 268 268 269 271
96 97 97 106 101 100 100 101 95 97 99 108 109 111 116 122 128 134 144 151 158 169 177 186 193 200 207 213 216 221 225 228 230 233 236 240 243 244 245 247 249 252 253 254 256 258 261 263 264 265 266 267 268 270
100 101 100 97 100 100 92 100 105 105 112 108 111 118 128 141 146 151 158 160 167 173 183 191 200 210 220 229 234 235 236 235 235 237 239 241 241 243 244 246 248 252 254 255 256 257 259 261 263 265 267 268 270 272
89 96 96 98 100 92 95 95 97 99 98 99 109 125 120 126 151 176 175 178 183 191 196 206 213 219 222 226 230 232 236 242 245 243 242 244 246 248 248 249 251 254 257 259 260 260 262 263 265 266 268 271 272 273
111 98 101 90 86 98 96 98 95 92 86 107 103 119 131 141 145 158 206 233 222 227 233 237 232 239 237 237 241 243 244 247 251 253 253 253 251 252 255 255 255 257 260 261 261 263 264 267 269 270 272 273 274 276
139 132 131 106 96 107 127 163 156 137 145 149 172 202 217 226 238 233 249 251 255 256 261 260 259 259 266 270 267 260 263 265 264 263 267 267 266 267 267 265 263 263 264 264 266 268 270 270 272 273 275 277 278 279
175 173 172 226 284 293 292 285 254 250 247 253 262 274 277 274 272 270 268 263 265 269 267 264 262 260 259 262 265 267 266 268 268 266 265 264 264 264 264 264 265 266 267 268 269 270 271 273 274 276 278 280 282 284
203 218 229 236 240 246 250 261 271 276 277 271 269 274 279 280 278 277 276 276 275 275 274 273 271 271 269 269 269 267 265 263 263 263 265 266 266 267 270 271 272 272 272 273 275 276 277 278 278 279 280 281 282 283
228 231 238 245 249 254 258 263 265 267 269 268 269 272 275 276 276 277 278 278 278 277 276 273 272 271 271 272 272 272 272 272 272 272 272 271 270 270 271 271 272 273 274 274 275 276 277 278 279 279 280 281 283 284
252 259 264 267 269 273 274 277 280 282 283 285 287 289 290 290 291 289 289 288 286 285 283 282 281 279 276 275 275 272 271 272 273 274 276 277 277 277 277 277 277 277 278 278 279 279 280 281 282 283 284 285 286 287
263 265 267 269 271 274 278 281 285 289 292 293 294 294 293 293 293 292 292 290 290 288 286 284 282 278 275 276 277 278 279 279 279 279 279 278 278 279 279 279 279 280 280 281 282 283 284 285 286 287 288 289 289 290
261 265 268 272 275 278 282 286 289 290 292 292 293 293 293 293 294 292 291 291 289 286 284 281 280 280 279 278 278 278 278 278 278 278 278 279 280 280 281 281 281 282 284 284 285 286 287 287 288 289 289 288 289 290
264 267 271 276 280 284 285 285 286 287 289 291 292 294 295 295 294 293 292 292 291 289 287 286 284 283 282 281 280 279 279 278 278 278 279 280 281 281 281 281 282 282 282 283 284 285 285 286 287 288 289 290 291 292
266 269 274 277 280 281 284 286 288 290 292 295 296 294 295 295 295 295 296 294 292 292 291 291 291 290 288 286 285 285 284 283 282 282 281 281 281 281 282 283 283 284 285 286 287 288 289 291 292 292 293 294 294 294
271 274 278 280 283 286 288 290 291 293 294 294 295 297 298 299 299 298 296 296 296 295 296 295 294 292 292 292 290 289 288 287 288 288 288 288 288 289 289 290 290 291 293 294 295 295 296 296 295 296 296 297 297 299
276 279 282 284 285 288 289 290 292 295 296 297 299 300 301 301 299 297 299 299 299 300 300 299 298 298 297 296 295 294 294 294 294 295 295 296 296 296 296 296 297 297 297 297 297 297 298 298 299 300 299 300 302 303
279 280 282 284 286 288 291 295 296 296 297 300 300 300 298 298 300 302 302 302 302 302 302 302 303 302 301 301 302 301 301 300 300 300 300 299 300 300 301 301 301 301 302 302 302 301 300 301 302 304 305 305 305 305